Regional Weather Roundup
Issued by NWS

Home | Current Version | Previous Version | Text Only | Print | Product List | Glossary Off
Versions: 1 2 3 4 5 6 7 8 9 10 11 12 13 14 15 16 17 18 19 20 21 22 23 24 25 26 27 28 29 30 31 32 33 34 35 36 37 38 39 40 41 42 43 44 45 46 47 48 49 50

000
ASUS43 KDMX 271801
RWRIA

WEATHER ROUNDUP FOR IOWA
NATIONAL WEATHER SERVICE DES MOINES IA
100 PM CDT THU JUL 27 2017

NOTE: "FAIR" INDICATES FEW OR NO CLOUDS BELOW 12,000 FEET WITH NO
SIGNIFICANT WEATHER AND/OR OBSTRUCTIONS TO VISIBILITY.

* - THESE STATIONS ARE NOT NWS STATIONS...THUS NOT UNDER NWS
QUALITY CONTROL.  THEY ALSO DO NOT REPORT WEATHER SUCH
AS PRECIPITATION OR FOG.

IAZ001>003-012>014-020>022-031>034-043>046-271900-
   NORTHWEST IOWA

CITY           SKY/WX    TMP DP  RH WIND       PRES   REMARKS
CARROLL *      SUNNY     81  64  57 NE12      30.06S HX  82
CHEROKEE *     MOSUNNY   81  60  49 NE9       30.08F HX  81
DENISON *      MOSUNNY   79  63  57 NE9       30.08F HX  80
ORANGE CITY *  PTSUNNY   79  63  57 N5        30.11S HX  80
SHELDON *      MOSUNNY   81  63  54 N8G14     30.10S HX  82
SIOUX CITY     MOSUNNY   85  61  44 NE10G18   30.08F HX  85
6HR MIN TEMP:  63; 6HR MAX TEMP:  85;

SPENCER        MOSUNNY   83  59  44 NE8       30.10S HX  83
6HR MIN TEMP:  62; 6HR MAX TEMP:  84;

STORM LAKE *     N/A     79  63  57 NE10      30.09F HX  80
$$

IAZ055>058-069>071-079>083-090>094-271900-
   SOUTHWEST IOWA

CITY           SKY/WX    TMP DP  RH WIND       PRES   REMARKS
ATLANTIC *     SUNNY     81  64  57 NE13      30.04F HX  82
AUDUBON *      SUNNY     81  64  57 NE7       30.07S HX  82
CLARINDA *     MOSUNNY   82  73  74 N9G15     30.03F HX  88
COUNCIL BLFS * MOSUNNY   79  64  61 N13G20    30.05F HX  81
CRESTON *      PTSUNNY   81  68  65 NE10G16   30.04S HX  83
HARLAN  *      MOSUNNY   81  66  61 NE12      30.09F HX  83
LAMONI         CLOUDY    84  70  62 N12       30.00F HX  88
6HR MIN TEMP:  71; 6HR MAX TEMP:  85;

RED OAK *      SUNNY     81  68  65 NE10      30.03F HX  83
SHENANDOAH *   MOSUNNY   82  70  65 N10       30.03F HX  86
$$

IAZ047>049-059>061-072>074-084-271900-
   CENTRAL IOWA

CITY           SKY/WX    TMP DP  RH WIND       PRES   REMARKS
AMES           MOSUNNY   82  65  56 NE8       30.03S HX  84
6HR MIN TEMP:  68; 6HR MAX TEMP:  83;

ANKENY *       PTSUNNY   81  66  61 NE12      30.02F HX  83
BOONE *        SUNNY     82  61  47 NE12      30.03F HX  83
CHARITON *     MOSUNNY   84  68  58 N8        29.99F HX  87
DES MOINES     PTSUNNY   83  66  56 N8        30.00F HX  85
6HR MIN TEMP:  72; 6HR MAX TEMP:  84;

GRINNELL*      PTSUNNY   79  66  64 N7        30.02S HX  81
KNOXVILLE *    SUNNY     82  68  61 NE9       29.99S HX  85
MARSHALLTOWN   SUNNY     83  63  50 N13       30.01F HX  84
6HR MIN TEMP:  69; 6HR MAX TEMP:  83;

NEWTON *       MOSUNNY   82  66  57 NE10      30.01S HX  85
PELLA *        PTSUNNY   84  66  54 NE5       30.01S HX  86
PERRY *          N/A     80  67  63 N6        30.04S HX  82
$$

IAZ004>006-015-016-023>025-035-036-271900-
   NORTH CENTRAL IOWA

CITY           SKY/WX    TMP DP  RH WIND       PRES   REMARKS
ALGONA *       SUNNY     81  64  57 NE10      30.08F HX  82
ESTHERVILLE    SUNNY     79  63  57 NE8       30.09F HX  80
6HR MIN TEMP:  61; 6HR MAX TEMP:  81;

FORT DODGE *   MOSUNNY   79  63  57 NE7       30.07S HX  80
FOREST CITY *    N/A     81  63  54 N7        30.08S HX  82
WEBSTER CITY * MOSUNNY   81  63  54 N7G17     30.04S HX  82
IOWA FALLS *     N/A     81  60  48 N8        30.06S HX  82
$$

IAZ007>011-017>019-026>030-037>042-050>054-066-271900-
   NORTHEAST IOWA

CITY           SKY/WX    TMP DP  RH WIND       PRES   REMARKS
CHARLES CITY * SUNNY     81  61  50 NE9       30.05F HX  81
DECORAH *      SUNNY     79  61  53 NE8G14    30.04S HX  80
DUBUQUE        MOSUNNY   80  66  62 NE12      30.00F HX  82
6HR MIN TEMP:  70; 6HR MAX TEMP:  81;

MONTICELLO *   MOSUNNY   81  68  65 NE9       29.99S HX  83
OELWEIN *      SUNNY     79  63  57 N13       30.03F HX  80
WATERLOO       SUNNY     81  63  54 NE13      30.01F HX  82
6HR MIN TEMP:  67; 6HR MAX TEMP:  82;

$$

IAZ064-065-067-068-078-271900-
   EAST CENTRAL IOWA

CITY           SKY/WX    TMP DP  RH WIND       PRES   REMARKS
DAVENPORT      PTSUNNY   81  70  69 NE13      29.98F HX  84
6HR MIN TEMP:  70; 6HR MAX TEMP:  83;

IOWA CITY      PTSUNNY   84  69  60 NE12      29.99S HX  88
6HR MIN TEMP:  74; 6HR MAX TEMP:  85;

MUSCATINE *    PTSUNNY   82  72  69 N9G17     29.97S HX  87
QUAD CITIES    PTSUNNY   84  70  62 NE8       29.95F HX  88
6HR MIN TEMP:  72; 6HR MAX TEMP:  84;

$$

IAZ062-063-075>077-085>089-095>099-271900-
   SOUTHEAST IOWA

CITY           SKY/WX    TMP DP  RH WIND       PRES   REMARKS
BURLINGTON     CLOUDY    79  73  82 NE13      29.96F HX  82
6HR MIN TEMP:  74; 6HR MAX TEMP:  79;

FAIRFIELD *    MOSUNNY   84  68  58 NE12G17   29.98S HX  87
FORT MADISON * CLOUDY    79  73  83 NE9       29.97S HX  82
KEOKUK *       CLOUDY    81  73  78 N8        29.95S HX  85
OSKALOOSA *    PTSUNNY   83  69  61 NE8       29.99S HX  87
OTTUMWA        MOSUNNY   85  68  56 MISG      29.98S HX  88
6HR MIN TEMP:  72; 6HR MAX TEMP:  86;

WASHINGTON *   MOSUNNY   82  73  74 NE8       29.99S HX  88
$$

ABBREVIATIONS USED IN REMARKS
   TC - TEMPERATURES IN CELSIUS
  WCI - WIND CHILL INDEX
   HX - HEAT INDEX
  VSB - VISIBILITY
$$





USA.gov is the U.S. government's official web portal to all federal, state and local government web resources and services.